Location: PSU-Greenbush Astrophysical Observatory
(37.5140°N, 94.9880°W)
Time: 01:22:33
(UTC-06:00)

Transit 2A - Pass Details

Date: 27 January 2020
Orbit: 600 x 959 km, 66.7° (Epoch: 21 February)

Event Time Altitude Azimuth Distance (km) Brightness Sun altitude
Rises 20:48:27 0° 257° (WSW) 2,879 9.8 -37.7°
Reaches altitude 10° 20:51:59 10° 286° (WNW) 1,949 8.8 -38.4°
Enters shadow 20:52:31 11° 293° (WNW) 1,869 8.6 -38.5°
Maximum altitude 20:53:54 13° 313° (NW) 1,777 - -38.8°
Drops below altitude 10° 20:55:49 10° 339° (NNW) 1,945 - -39.2°
Sets 20:59:21 0° 9° (N) 2,866 - -39.9°
